Flag for U.S.A. Weather past 2 weeks in Jefferson City, Missouri, U.S.A.

Now
64 °F

Clear.


Feels Like: 64 °F
Forecast: 63 / 79 °F
Wind: 5 mph from Northwest

Location: Jefferson City Memorial Airport

Current Time: Jul 28, 2014 at 5:27:56 AM

Latest Report: Jul 28, 2014 at 4:53 AM


Visibility: 10 mi

Pressure: 30.05 "Hg

Humidity: 78%

Dew point: 57 °F

Location of Jefferson CityLocation

Historic Weather in Jefferson City — Graph

°F

Jefferson City temperature yesterday

Maximum temperature yesterday: 88 °F (at 12:53 PM)
Minimum temperature yesterday: 73 °F (at 11:53 PM)
Average temperature yesterday: 82 °F

Past Weeks' High & Low Weather Summary

 TemperatureHumidityPressure
High93 °F (Jul 22, 6:53 PM)100% (Jul 16, 5:53 AM)30.12 "Hg (Jul 16, 5:53 AM)
Low54 °F (Jul 16, 5:53 AM)31% (Jul 27, 4:53 PM)29.77 "Hg (Jul 25, 7:53 PM)
Average74 °F69%29.98 "Hg
* Reported Jul 13 3:53 AM — Jul 28 3:53 AM, Jefferson City, Weather by CustomWeather, © 2014

Note: Actual official high and low records may vary slightly from our data, if they occured in-between our weather recording intervals... More about our weather records

Advertising

Jefferson City weather history for previous 24 hours

 ConditionsComfort  
Time TempWeatherWind HumidityBarometerVisibility
3:53 AM
Jul 28
65 °FClear.5 mph76%30.03 "Hg10 mi
2:53 AM66 °FClear.3 mph73%30.03 "Hg10 mi
1:53 AM67 °FClear.6 mph73%30.02 "Hg10 mi
12:53 AM70 °FClear.6 mph64%30.02 "Hg10 mi
11:53 PM
Jul 27
73 °FClear.5 mph57%30.01 "Hg10 mi
10:53 PM75 °FClear.7 mph55%29.99 "Hg10 mi
9:53 PM77 °FClear.9 mph50%29.98 "Hg10 mi
8:53 PM80 °FSunny.7 mph45%29.96 "Hg10 mi
7:53 PM83 °FSunny.9 mph41%29.94 "Hg10 mi
6:53 PM85 °FSunny.13 mph39%29.93 "Hg10 mi
5:53 PM86 °FSunny.14 mph36%29.92 "Hg10 mi
4:53 PM88 °FSunny.17 mph31%29.91 "Hg10 mi
3:53 PM88 °FSunny.16 mph34%29.90 "Hg10 mi
2:53 PM88 °FSunny.14 mph35%29.90 "Hg10 mi
1:53 PM88 °FPassing clouds.15 mph38%29.91 "Hg10 mi
12:53 PM88 °FSunny.14 mph40%29.91 "Hg10 mi
11:53 AM86 °FSunny.10 mph57%29.92 "Hg10 mi
10:53 AM85 °FSunny.7 mph65%29.91 "Hg10 mi
9:53 AM82 °FPassing clouds.8 mph74%29.90 "Hg10 mi
8:53 AM81 °FScattered clouds.8 mph79%29.89 "Hg8 mi
7:53 AM80 °FBroken clouds.8 mph81%29.88 "Hg10 mi
6:53 AM79 °FMostly cloudy.3 mph77%29.85 "Hg10 mi
5:53 AM78 °FPartly cloudy.6 mph76%29.83 "Hg10 mi
Weather by CustomWeather, © 2014

See weather overviewHow to use our weather pages